This is the latest recevied weather packets stored in our database for station/object EA3FL-15. If no packets are shown the sender has not sent any weather packets the latest 1 day(s).
| Time | Temp. | Humidity | Pressure | Rain* | Wind** | Luminosity | Snow |
|---|---|---|---|---|---|---|---|
| 1778073686 | 20° C | 100% | 1015 hPa | - | - | - | - |
| 1778069185 | 20° C | 88% | 1015.3 hPa | - | - | - | - |
| 1778068285 | 18.89° C | 95% | 1015.2 hPa | - | - | - | - |
| 1778067385 | 18.89° C | 95% | 1015.1 hPa | - | - | - | - |
| 1778066485 | 18.89° C | 98% | 1015.3 hPa | - | - | - | - |
| 1778062884 | 18.33° C | 100% | 1015.6 hPa | - | - | - | - |
| 1778061984 | 17.22° C | 100% | 1015.7 hPa | - | - | - | - |
| 1778061084 | 17.22° C | 100% | 1015.9 hPa | - | - | - | - |
| 1778060184 | 17.22° C | 100% | 1015.9 hPa | - | - | - | - |
| 1778056583 | 16.67° C | 100% | 1015.6 hPa | - | - | - | - |
| 1778055683 | 16.11° C | 100% | 1015.5 hPa | - | - | - | - |
| 1778054783 | 15.56° C | 100% | 1015.6 hPa | - | - | - | - |
| 1778053883 | 15° C | 100% | 1015.4 hPa | - | - | - | - |
| 1778052983 | 14.44° C | 100% | 1015.4 hPa | - | - | - | - |
| 1778051183 | 13.89° C | 100% | 1015.2 hPa | - | - | - | - |
| 1778049384 | 12.78° C | 100% | 1015.1 hPa | - | - | - | - |
| 1778048483 | 12.78° C | 100% | 1015.1 hPa | - | - | - | - |
| 1778047583 | 12.78° C | 100% | 1015.1 hPa | - | - | - | - |
| 1778046683 | 12.78° C | 100% | 1014.9 hPa | - | - | - | - |
| 1778045798 | 12.78° C | 100% | 1014.8 hPa | - | - | - | - |
| 1778043097 | 11.67° C | 100% | 1014.7 hPa | - | - | - | - |
| 1778042197 | 11.11° C | 100% | 1014.7 hPa | - | - | - | - |
| 1778040397 | 11.11° C | 100% | 1014.5 hPa | - | - | - | - |
| 1778039497 | 11.11° C | 100% | 1014.5 hPa | - | - | - | - |
| 1778038597 | 11.67° C | 100% | 1014.5 hPa | - | - | - | - |
* Rain since midnight (hover to see other rain measurements)
** Current wind speed in m/s (hover to see current wind gust speed)